[[{"header":{"parameterUnit":"m.s-1","parameterCategory":1,"la1":30.2991,"la2":30.254,"lo1":-89.0895,"lo2":-89.0444,"dy":0.0017,"dx":0.0017,"nx":28,"ny":28,"refTime":"2024-08-10T03:00:00:Z","depth":0,"parameterNumber":2,"parameterNumberName":"U-component_of_WINDS"},"data":[0,0,0,0,0,0,0,0,0,0,0,0,0,0,0,0,0,0,0,0,0,0,0,0,0,0,0,0,0,0,0,0,0,0,0,0,0,0,0,0,0,0,0,0,0,0,0,0,0,0,0,0,0,0,0,0,0,0,0.1677,0.1677,0,0.1728,0.1729,0.1729,0.183,0.1832,0.1834,0.1836,0.1885,0.1884,0.1884,0,0,0,0,0,0,0,0,0,0,0,0,0,0.1662,0.1662,0.1677,0.1677,0.1678,0.1728,0.1729,0.1729,0.1829,0.1832,0.1834,0.1836,0.1885,0.1885,0.1884,0,0,0,0,0,0,0,0,0,0,0,0,0,0.1686,0.1662,0.1677,0.1734,0.174,0.1728,0.1729,0.173,0.1829,0.1832,0.1835,0.1838,0.1885,0.1885,0.1884,0.1819,0,0,0.1881,0.1881,0,0,0,0,0,0,0,0,0.1685,0.1687,0.1725,0.173,0.1736,0.1776,0.1742,0.176,0.1828,0.1795,0.1836,0.1839,0.1846,0.1849,0.1852,0.1822,0.1824,0.1881,0.1881,0.1881,0.188,0,0,0,0,0,0,0,0.1683,0.1685,0.1697,0.1725,0.1732,0.1756,0.1763,0.1746,0.1803,0.1798,0.1805,0.181,0.185,0.1852,0.1854,0.1825,0.1881,0.1881,0.188,0.188,0.1744,0.1741,0,0,0,0,0,0,0.1674,0.1683,0.1695,0.1699,0.1718,0.1754,0.1762,0.176,0.1804,0.1813,0.1808,0.1815,0.1852,0.1854,0.1856,0.1783,0.1881,0.188,0.1879,0.1747,0.1743,0.174,0,0,0,0,0,0,0.1673,0.1674,0.1693,0.1693,0.1697,0.1751,0.1748,0.1759,0.1762,0.1811,0.1821,0.18,0.1855,0.1857,0.1828,0.1786,0.1879,0.1879,0.1751,0.1746,0.1741,0.1636,0,0,0,0,0,0,0.1672,0.1673,0.165,0.1692,0.1697,0.1665,0.1746,0.1758,0.1761,0.1771,0.1806,0.1815,0.1857,0.1828,0.1827,0.1786,0.1878,0.1755,0.1748,0.1743,0.1644,0.1628,0.1615,0,0,0,0,0,0.1671,0.1617,0.1648,0.1649,0.1669,0.1663,0.1665,0.1716,0.1757,0.1734,0.1765,0.1814,0.1791,0.1825,0.1824,0.1782,0.1757,0.175,0.1743,0.165,0.1631,0.1616,0,0,0,0,0,0,0.1568,0.1624,0.1658,0.1617,0.1634,0.168,0.1652,0.1695,0.17,0.1708,0.177,0.1777,0.1739,0.1758,0.1795,0.1722,0.1782,0.1774,0.1711,0.1694,0.168,0.1676,0.1877,0,0,0,0,0,0.154,0.1531,0.1581,0.1539,0.1546,0.1597,0.1596,0.1633,0.1653,0.1661,0.169,0.1707,0.1704,0.17,0.17,0.1647,0.1656,0.1618,0.1604,0.1592,0.1585,0.1558,0.1541,0.1716,0.1717,0.1717,0,0,0.1483,0.1513,0.1503,0.1519,0.1537,0.1525,0.1602,0.1587,0.1578,0.1658,0.1633,0.1655,0.1677,0.1636,0.1619,0.1651,0.1538,0.1583,0.1573,0.1572,0.1549,0.1532,0.1517,0.1712,0.1713,0.1713,0,0,0.1373,0.1395,0.1363,0.1379,0.1406,0.144,0.1432,0.1471,0.1488,0.1464,0.1524,0.1514,0.1507,0.1521,0.1526,0.1421,0.1466,0.1419,0.1345,0.1318,0.1304,0.1292,0.1254,0.1239,0.1412,0.1411,0.1411,0,0.1298,0.1284,0.134,0.1321,0.1326,0.1398,0.1365,0.1378,0.1403,0.1404,0.1439,0.1431,0.1452,0.1414,0.1389,0.1391,0.1383,0.1415,0.1302,0.1291,0.128,0.1244,0.123,0.1405,0.1406,0.1407,0.1407,0,0.1191,0.118,0.115,0.1173,0.1174,0.1148,0.1199,0.1194,0.1231,0.1261,0.1234,0.1262,0.1268,0.1262,0.1297,0.1229,0.1248,0.1291,0.1352,0.1257,0.1224,0.121,0.1397,0.1399,0.1401,0.1402,0,0,0.1017,0.1071,0.1059,0.107,0.1104,0.1096,0.1073,0.108,0.1074,0.1088,0.1069,0.1061,0.1102,0.1109,0.1147,0.1123,0.1036,0.117,0.1171,0.1143,0.0962,0.0928,0.0911,0.1067,0.1064,0.1063,0.096,0,0.0914,0.0878,0.0927,0.088,0.087,0.0939,0.0919,0.0937,0.0964,0.0959,0.0989,0.0982,0.1037,0.1041,0.1021,0.1051,0.1001,0.1059,0.1049,0.1048,0.104,0.0894,0.0859,0.076,0.0947,0.0945,0.0944,0,0.0789,0.0798,0.0749,0.0786,0.0784,0.0765,0.0775,0.0769,0.0791,0.0813,0.082,0.0865,0.0844,0.0904,0.0874,0.0913,0.0912,0.0926,0.0923,0.0924,0.0989,0.089,0.073,0.0715,0.0924,0.0926,0.0927,0,0.0665,0.0665,0.0637,0.0644,0.0687,0.0671,0.0688,0.0713,0.0714,0.0722,0.0723,0.0728,0.0731,0.0734,0.0779,0.0818,0.0744,0.0807,0.076,0.0758,0.074,0.0741,0.0577,0.074,0.0741,0.0741,0.0741,0,0.0545,0.0512,0.0582,0.0564,0.0529,0.0586,0.055,0.0574,0.0595,0.0582,0.0642,0.0628,0.0689,0.0682,0.0717,0.0687,0.0688,0.0704,0.0713,0.0698,0.0696,0.0697,0.0705,0.0737,0.0738,0.0739,0.0739,0,0.0401,0.0447,0.042,0.0462,0.0472,0.0445,0.0481,0.0466,0.0497,0.048,0.0479,0.0528,0.0522,0.0568,0.057,0.0594,0.0547,0.0569,0.0539,0.0546,0.0496,0.0499,0.0327,0.0307,0.0483,0.0481,0.048,0,0.0321,0.0298,0.0338,0.0334,0.0348,0.0341,0.0343,0.0397,0.0396,0.0419,0.04,0.04,0.0402,0.039,0.0424,0.0427,0.0448,0.0388,0.0449,0.0434,0.0446,0.0447,0.0444,0.0375,0.0372,0.0371,0.0369,0,0.0173,0.0197,0.0197,0.0204,0.0205,0.0213,0.0225,0.0218,0.0278,0.0273,0.0268,0.027,0.0273,0.0271,0.028,0.0297,0.0342,0.035,0.0339,0.0322,0.0306,0.0313,0.0504,0.0353,0.0355,0.0356,0.0357,0.0358,0.0059,0.0041,0.0067,0.0064,0.008,0.0089,0.0077,0.0107,0.0104,0.0112,0.0144,0.0133,0.0155,0.0172,0.0184,0.0176,0.0205,0.0189,0.0185,0.018,0.017,0.0308,0.0178,0.0178,0.0179,0.0179,0.0179,0,-0.0086,-0.0067,-0.0069,-0.0054,-0.0056,-0.0011,0.0004,-0.0001,-0.0011,0.0006,0.0007,0.0001,-0.0,0.0035,0.0037,0.0024,0.0045,0.0023,0.0024,0.0027,0.0145,0.0153,0.0006,0.0006,0.0006,0.0006,0.0006,0.0006,-0.0162,-0.019,-0.0164,-0.0184,-0.0164,-0.0173,-0.0168,-0.0159,-0.0145,-0.0154,-0.0155,-0.0132,-0.0108,-0.0103,-0.0103,-0.0093,-0.0095,-0.0125,-0.0108,0.0002,0.0018,0.0034,0.0043,-0.0125,-0.0126,-0.0225,-0.0226,-0.0226]},{"header":{"parameterUnit":"m.s-1","parameterCategory":1,"la1":30.2991,"la2":30.254,"lo1":-89.0895,"lo2":-89.0444,"dy":0.0017,"dx":0.0017,"nx":28,"ny":28,"refTime":"2024-08-10T03:00:00:Z","depth":0,"parameterNumber":3,"parameterNumberName":"V-component_of_WINDS"},"data":[0,0,0,0,0,0,0,0,0,0,0,0,0,0,0,0,0,0,0,0,0,0,0,0,0,0,0,0,0,0,0,0,0,0,0,0,0,0,0,0,0,0,0,0,0,0,0,0,0,0,0,0,0,0,0,0,0,0,0.919,0.919,0,0.9189,0.9189,0.9188,0.9189,0.9189,0.9189,0.9189,0.9187,0.9187,0.9187,0,0,0,0,0,0,0,0,0,0,0,0,0,0.9191,0.9191,0.919,0.919,0.919,0.9189,0.9189,0.9188,0.9189,0.9189,0.9189,0.9189,0.9187,0.9187,0.9187,0,0,0,0,0,0,0,0,0,0,0,0,0,0.919,0.9191,0.919,0.919,0.919,0.9189,0.9189,0.9188,0.9189,0.9189,0.9189,0.9189,0.9187,0.9187,0.9187,0.9186,0,0,0.9187,0.9187,0,0,0,0,0,0,0,0,0.919,0.919,0.919,0.919,0.919,0.9189,0.9188,0.9188,0.9189,0.9189,0.9189,0.9189,0.9188,0.9188,0.9187,0.9186,0.9186,0.9187,0.9187,0.9187,0.9187,0,0,0,0,0,0,0,0.919,0.919,0.9189,0.919,0.919,0.9189,0.9189,0.9188,0.9188,0.9189,0.9189,0.9189,0.9188,0.9187,0.9187,0.9186,0.9187,0.9187,0.9187,0.9187,0.9181,0.9181,0,0,0,0,0,0,0.919,0.919,0.9189,0.9189,0.919,0.9189,0.9189,0.9189,0.9188,0.9188,0.9189,0.9189,0.9188,0.9187,0.9187,0.9185,0.9187,0.9187,0.9187,0.9181,0.9181,0.9181,0,0,0,0,0,0,0.919,0.919,0.9189,0.919,0.9189,0.9189,0.9189,0.9189,0.9189,0.9188,0.9188,0.9189,0.9188,0.9187,0.9186,0.9185,0.9187,0.9186,0.9181,0.9181,0.9181,0.918,0,0,0,0,0,0,0.919,0.919,0.919,0.919,0.9189,0.9188,0.9189,0.9189,0.9189,0.9189,0.9188,0.9188,0.9188,0.9186,0.9186,0.9184,0.9186,0.9182,0.9181,0.9181,0.918,0.918,0.918,0,0,0,0,0,0.919,0.919,0.919,0.919,0.9189,0.9188,0.9188,0.9188,0.9189,0.9188,0.9187,0.9188,0.9185,0.9186,0.9186,0.9184,0.9182,0.9181,0.9181,0.918,0.918,0.918,0,0,0,0,0,0,0.9191,0.919,0.919,0.919,0.9189,0.9188,0.9188,0.9188,0.9187,0.9187,0.9187,0.9187,0.9185,0.9184,0.9186,0.9182,0.9183,0.9183,0.9182,0.9182,0.9182,0.9182,0.9186,0,0,0,0,0,0.9191,0.919,0.919,0.9189,0.9189,0.9188,0.9188,0.9188,0.9187,0.9187,0.9186,0.9185,0.9184,0.9183,0.9182,0.918,0.9179,0.9179,0.9179,0.9178,0.9178,0.9176,0.9175,0.9181,0.9181,0.9181,0,0,0.9191,0.9191,0.919,0.9189,0.9189,0.9188,0.9188,0.9188,0.9186,0.9187,0.9185,0.9184,0.9183,0.9181,0.918,0.9181,0.9176,0.9178,0.9178,0.9178,0.9175,0.9175,0.9174,0.918,0.918,0.918,0,0,0.9191,0.9191,0.919,0.9189,0.9188,0.9187,0.9187,0.9186,0.9185,0.9184,0.9183,0.9182,0.918,0.9179,0.9178,0.9175,0.9175,0.9175,0.9173,0.9171,0.9171,0.917,0.9168,0.9168,0.9175,0.9175,0.9175,0,0.9191,0.919,0.9189,0.9188,0.9187,0.9187,0.9185,0.9185,0.9183,0.9182,0.9183,0.918,0.9179,0.9176,0.9175,0.9175,0.9174,0.9175,0.9171,0.917,0.917,0.9168,0.9168,0.9175,0.9175,0.9175,0.9175,0,0.9189,0.9188,0.9188,0.9186,0.9185,0.9184,0.9182,0.9181,0.9181,0.918,0.9177,0.9176,0.9174,0.9174,0.9174,0.917,0.917,0.9171,0.9172,0.9169,0.9168,0.9167,0.9174,0.9174,0.9174,0.9174,0,0,0.919,0.9187,0.9187,0.9185,0.9184,0.9182,0.9181,0.9178,0.9177,0.9176,0.9174,0.9171,0.9171,0.917,0.917,0.9168,0.9164,0.9168,0.9168,0.9167,0.9159,0.9158,0.9158,0.9164,0.9164,0.9164,0.9159,0,0.9189,0.9186,0.9185,0.9182,0.918,0.9179,0.9177,0.9176,0.9174,0.9172,0.9171,0.9169,0.917,0.9169,0.9167,0.9165,0.9163,0.9166,0.9161,0.9161,0.9161,0.9157,0.9157,0.9152,0.9158,0.9158,0.9158,0,0.9187,0.9185,0.9182,0.9179,0.9178,0.9177,0.9174,0.9172,0.917,0.9169,0.9167,0.9166,0.9164,0.9165,0.916,0.9162,0.916,0.9159,0.9159,0.9158,0.9159,0.9155,0.9151,0.915,0.9157,0.9157,0.9157,0,0.9187,0.9184,0.9181,0.918,0.9177,0.9175,0.9174,0.9171,0.917,0.9167,0.9166,0.9163,0.9161,0.9159,0.9157,0.9158,0.9152,0.9153,0.9151,0.9151,0.9149,0.9149,0.9143,0.9149,0.9149,0.9149,0.9149,0,0.9186,0.9184,0.9181,0.9179,0.9176,0.9174,0.9171,0.917,0.9167,0.9165,0.9164,0.9161,0.916,0.9157,0.9155,0.9151,0.915,0.9149,0.9149,0.9149,0.9149,0.9147,0.9147,0.9149,0.9149,0.9149,0.9149,0,0.9185,0.9183,0.918,0.9176,0.9175,0.9173,0.917,0.9168,0.9166,0.9163,0.9162,0.9159,0.9156,0.9154,0.9149,0.9148,0.9143,0.9143,0.9144,0.9144,0.9141,0.9141,0.9133,0.9132,0.9139,0.9139,0.9139,0,0.9184,0.9182,0.9178,0.9176,0.9175,0.9172,0.917,0.9168,0.9165,0.9162,0.916,0.9156,0.9153,0.9147,0.9144,0.914,0.914,0.9137,0.9139,0.9139,0.9138,0.9138,0.9138,0.9137,0.9137,0.9137,0.9137,0,0.9182,0.9181,0.9178,0.9174,0.9172,0.9169,0.9166,0.9164,0.9162,0.9159,0.9155,0.9153,0.9147,0.9143,0.9139,0.9137,0.9136,0.9136,0.9135,0.9135,0.9135,0.9134,0.9142,0.9136,0.9136,0.9136,0.9136,0.9136,0.9181,0.9179,0.9175,0.9171,0.9169,0.9166,0.9163,0.9161,0.9157,0.9153,0.9152,0.9147,0.9143,0.9137,0.9135,0.9131,0.9131,0.913,0.913,0.9129,0.9129,0.9136,0.913,0.913,0.913,0.913,0.913,0,0.9178,0.9175,0.9172,0.9168,0.9164,0.9164,0.916,0.9157,0.9153,0.915,0.9146,0.9141,0.9137,0.9133,0.9128,0.9126,0.9125,0.9124,0.9124,0.9124,0.9129,0.913,0.9125,0.9125,0.9125,0.9125,0.9125,0.9125,0.9176,0.9172,0.917,0.9164,0.9161,0.9157,0.9155,0.9151,0.9148,0.9142,0.9139,0.9136,0.9132,0.9127,0.9123,0.9122,0.912,0.9119,0.9118,0.9123,0.9123,0.9124,0.9125,0.9119,0.9119,0.9113,0.9112,0.9112]}]]